Regional Weather Roundup
Issued by NWS

Home | Current Version | Previous Version | Text Only | Print | Product List | Glossary Off
Versions: 1 2 3 4 5 6 7 8 9 10 11 12 13 14 15 16 17 18 19 20 21 22 23 24 25 26 27 28 29 30 31 32 33 34 35 36 37 38 39 40 41 42 43 44 45 46 47 48 49 50

594
ASUS43 KFSD 260310
RWRSD

WEATHER ROUNDUP FOR SOUTH DAKOTA
NATIONAL WEATHER SERVICE SIOUX FALLS SD
1000 PM CDT TUE APR 25 2017

NOTE: "FAIR" INDICATES FEW OR NO CLOUDS BELOW 12,000 FEET WITH NO
SIGNIFICANT WEATHER AND/OR OBSTRUCTIONS TO VISIBILITY.


SDZ001>005-009-010-012>017-260400-
NORTHWEST AND NORTH CENTRAL SOUTH DAKOTA

CITY           SKY/WX    TMP DP  RH WIND       PRES   REMARKS
BUFFALO          N/A     30  25  81 N15       29.86R WCI  19
FAITH            N/A     29  27  92 N13       29.89R WCI  19
MOBRIDGE       CLOUDY    35  25  66 N20       29.84S WCI  24
$$

SDZ012>016-024>037-041>051-057-063-072>074-260400-
SOUTHWEST AND SOUTH CENTRAL SOUTH DAKOTA

CITY           SKY/WX    TMP DP  RH WIND       PRES   REMARKS
RAPID CTY ARPT FLURRIES  28  25  88 N17       29.89R WCI  16
PIERRE         CLOUDY    31  28  89 N15       29.84S WCI  20
CUSTER         LGT SNOW  26  23  88 CALM      29.79R FOG
ELLSWORTH AFB  LGT SNOW  28  28 100 N16       29.88R FOG     WCI  16
PHILIP         CLOUDY    31  29  92 N13       29.90R WCI  21
PINE RIDGE     LGT SNOW  29  26  89 N10       29.87S FOG     WCI  20
SPEARFISH      LGT SNOW  25  25 100 NW8       29.90R WCI  16
WINNER         CLOUDY    34  31  88 NW17      29.82R WCI  23
$$

SDZ004>011-016>023-039-040-260400-
NORTHEAST SOUTH DAKOTA

CITY           SKY/WX    TMP DP  RH WIND       PRES   REMARKS
ABERDEEN       CLOUDY    33  26  75 N17       29.80S WCI  22
WATERTOWN      CLOUDY    33  31  92 N22G28    29.70S WCI  21
BROOKINGS      MIX PCPN  35  33  92 N17       29.67S WCI  25
SISSETON         N/A     35  32  88 N22       29.75R WCI  23
$$

SDZ017-020-022-023-036>040-048>070-260400-
SOUTHEAST SOUTH DAKOTA

CITY           SKY/WX    TMP DP  RH WIND       PRES   REMARKS
SIOUX FALLS    CLOUDY    37  37 100 N17       29.66S
HURON          CLOUDY    33  31  92 N20G26    29.77F WCI  21
CHAMBERLAIN    CLOUDY    36  32  84 NW15G23   29.81R
MITCHELL       CLOUDY    35  32  88 N17G31    29.76S WCI  25
YANKTON        CLOUDY    36  32  87 NW21G26   29.70R
$$

ABBREVIATIONS USED IN REMARKS
   TC - TEMPERATURE IN CELSIUS
  WCI - WIND CHILL INDEX
   HX - HEAT INDEX
  VSB - VISIBILITY





USA.gov is the U.S. government's official web portal to all federal, state and local government web resources and services.